Weather History for Duluth Sky Harbor, MN

Change the Weather History Date:

Sunday, February 10, 2013

  Actual Average Record
Temperature  
Mean Temperature 30 °F -  
Max Temperature 33 °F 22 °F 68 °F (1997)
Min Temperature 26 °F 3 °F -23 °F (1962)
Degree Days  
Heating Degree Days 36    
Moisture  
Dew Point 27 °F    
Average Humidity 90    
Maximum Humidity 93    
Minimum Humidity 86    
Precipitation  
Precipitation 0.00 in - - ()
Sea Level Pressure  
Sea Level Pressure 29.66 in    
Wind  
Wind Speed 13 mph (ENE)    
Max Wind Speed 34 mph    
Max Gust Speed 41 mph    
Visibility 5 miles    
Events Snow    
Averages and records for this station are not official NWS values.
T = Trace of Precipitation, MM = Missing Value Source: NWS Daily Summary

Daily Weather History Graph

Daily Weather History Graph

Search for Another Location

Airport:

Trip Planner

Search our weather history database for the weather conditions in past years. The results will help you decide how hot, cold, wet, or windy it might be!

Date:

Astronomy

Feb. 10, 2013 Rise Set
Actual Time 7:19 AM CST 5:25 PM CST
Civil Twilight 6:47 AM CST 5:57 PM CST
Nautical Twilight 6:12 AM CST 6:33 PM CST
Astronomical Twilight 5:37 AM CST 7:08 PM CST
Moon 7:04 AM CST (2/10) 6:23 PM CST (2/10)
Length of Visible Light 11h 09m
Length of Day
10h 06m
New Moon, 0% of the Moon is Illuminated
Feb 10
New Moon
Feb 17
First Quarter
Feb 25
Full
Mar 4
Last Quarter
Mar 11
New

Hourly Weather History & Observations

Time (CST) Temp. Windchill Dew Point Humidity Pressure Visibility Wind Dir Wind Speed Gust Speed Precip Events Conditions
12:13 AM 28.4 °F - 24.8 °F 86% 29.99 in 10.0 mi Calm Calm - N/A   Overcast
12:34 AM 26.6 °F - 23.0 °F 86% 29.98 in 7.0 mi Calm Calm - N/A   Overcast
12:54 AM 26.6 °F 21.2 °F 24.8 °F 93% 29.98 in 7.0 mi South 4.6 mph - N/A   Overcast
1:13 AM 26.6 °F 21.2 °F 24.8 °F 93% 29.98 in 7.0 mi SSE 4.6 mph - N/A   Overcast
1:34 AM 26.6 °F 20.0 °F 24.8 °F 93% 29.98 in 7.0 mi South 5.8 mph - N/A   Overcast
1:53 AM 26.6 °F 20.0 °F 24.8 °F 93% 29.98 in 7.0 mi South 5.8 mph - N/A   Overcast
2:14 AM 26.6 °F - 24.8 °F 93% 29.99 in 5.0 mi Calm Calm - N/A   Overcast
2:33 AM 26.6 °F - 24.8 °F 93% 29.97 in 5.0 mi Calm Calm - N/A   Overcast
2:54 AM 26.6 °F - 24.8 °F 93% 29.97 in 5.0 mi Calm Calm - N/A   Overcast
3:14 AM 26.6 °F - 24.8 °F 93% 29.96 in 5.0 mi Calm Calm - N/A   Overcast
3:33 AM 26.6 °F - 24.8 °F 93% 29.94 in 5.0 mi Calm Calm - N/A   Overcast
3:54 AM 26.6 °F 21.2 °F 24.8 °F 93% 29.94 in 5.0 mi ESE 4.6 mph - N/A   Overcast
4:14 AM 26.6 °F 20.0 °F 24.8 °F 93% 29.93 in 5.0 mi East 5.8 mph - N/A   Overcast
4:33 AM 26.6 °F 20.0 °F 24.8 °F 93% 29.92 in 5.0 mi East 5.8 mph - N/A   Overcast
4:54 AM 26.6 °F 18.2 °F 24.8 °F 93% 29.92 in 5.0 mi East 8.1 mph - N/A   Overcast
5:13 AM 26.6 °F 19.1 °F 24.8 °F 93% 29.91 in 5.0 mi East 6.9 mph - N/A   Overcast
5:33 AM 26.6 °F 20.0 °F 24.8 °F 93% 29.91 in 5.0 mi ESE 5.8 mph - N/A   Overcast
5:54 AM 26.6 °F 20.0 °F 24.8 °F 93% 29.90 in 5.0 mi ESE 5.8 mph - N/A   Overcast
6:13 AM 26.6 °F 19.1 °F 24.8 °F 93% 29.91 in 7.0 mi SE 6.9 mph - N/A   Overcast
6:33 AM 26.6 °F 20.0 °F 24.8 °F 93% 29.89 in 5.0 mi ESE 5.8 mph - N/A   Overcast
6:54 AM 26.6 °F 16.8 °F 24.8 °F 93% 29.87 in 7.0 mi East 10.4 mph - N/A   Overcast
7:13 AM 26.6 °F 16.2 °F 24.8 °F 93% 29.85 in 7.0 mi East 11.5 mph - N/A   Overcast
7:33 AM 26.6 °F 15.2 °F 24.8 °F 93% 29.83 in 5.0 mi East 13.8 mph - N/A   Overcast
7:54 AM 26.6 °F 14.7 °F 24.8 °F 93% 29.84 in 7.0 mi East 15.0 mph - N/A   Overcast
8:13 AM 26.6 °F 13.8 °F 24.8 °F 93% 29.81 in 7.0 mi East 17.3 mph - N/A   Overcast
8:34 AM 26.6 °F 12.7 °F 24.8 °F 93% 29.80 in 7.0 mi ENE 20.7 mph - N/A   Overcast
8:54 AM 28.4 °F 15.8 °F 24.8 °F 86% 29.82 in 7.0 mi ENE 18.4 mph - N/A   Overcast
9:13 AM 28.4 °F 15.1 °F 24.8 °F 86% 29.81 in 10.0 mi ENE 20.7 mph 25.3 mph N/A   Overcast
9:34 AM 28.4 °F 14.4 °F 24.8 °F 86% 29.81 in 10.0 mi East 23.0 mph 27.6 mph N/A   Overcast
9:54 AM 28.4 °F 14.1 °F 24.8 °F 86% 29.80 in 10.0 mi ENE 24.2 mph - N/A   Overcast
10:13 AM 28.4 °F 14.4 °F 24.8 °F 86% 29.78 in 10.0 mi ENE 23.0 mph - N/A   Overcast
10:34 AM 28.4 °F 13.5 °F 24.8 °F 86% 29.76 in 10.0 mi ENE 26.5 mph - N/A   Overcast
10:54 AM 28.4 °F 13.8 °F 24.8 °F 86% 29.74 in 10.0 mi East 25.3 mph 31.1 mph N/A   Overcast
11:13 AM 28.4 °F 13.3 °F 24.8 °F 86% 29.72 in 10.0 mi ENE 27.6 mph - N/A   Overcast
11:34 AM 28.4 °F 13.8 °F 24.8 °F 86% 29.72 in 10.0 mi ENE 25.3 mph 33.4 mph N/A   Overcast
11:54 AM 28.4 °F 12.5 °F 24.8 °F 86% 29.69 in 10.0 mi ENE 31.1 mph 35.7 mph N/A   Overcast
12:13 PM 28.4 °F 12.7 °F 24.8 °F 86% 29.66 in 10.0 mi ENE 29.9 mph 36.8 mph N/A   Overcast
12:34 PM 28.4 °F 12.5 °F 24.8 °F 86% 29.63 in 10.0 mi ENE 31.1 mph 38.0 mph N/A   Overcast
12:53 PM 28.4 °F 12.5 °F 24.8 °F 86% 29.61 in 10.0 mi ENE 31.1 mph 36.8 mph N/A   Overcast
1:13 PM 28.4 °F 12.5 °F 26.6 °F 93% 29.57 in 0.5 mi NE 31.1 mph 39.1 mph N/A Snow Light Snow
1:34 PM 28.4 °F 12.5 °F 26.6 °F 93% 29.57 in 1.0 mi ENE 31.1 mph 39.1 mph N/A Snow Light Snow
1:53 PM 28.4 °F 12.0 °F 26.6 °F 93% 29.55 in 0.2 mi ENE 33.4 mph 41.4 mph N/A Snow Snow
2:13 PM 28.4 °F 11.8 °F 26.6 °F 93% 29.52 in 2.0 mi NE 34.5 mph 40.3 mph N/A Snow Light Snow
2:34 PM 30.2 °F 14.5 °F 26.6 °F 86% 29.52 in 0.5 mi ENE 33.4 mph 39.1 mph N/A Snow Light Snow
2:53 PM 30.2 °F 14.9 °F 26.6 °F 86% 29.52 in 0.2 mi ENE 31.1 mph 40.3 mph N/A Snow Snow
3:14 PM 30.2 °F 14.3 °F 28.4 °F 93% 29.51 in 0.2 mi ENE 34.5 mph 39.1 mph N/A Snow Heavy Snow
3:33 PM 30.2 °F 15.2 °F 28.4 °F 93% 29.51 in 0.2 mi ENE 29.9 mph 41.4 mph N/A Snow Snow
3:53 PM 30.2 °F 14.5 °F 28.4 °F 93% 29.49 in 0.2 mi ENE 33.4 mph - N/A Snow Snow
4:14 PM 30.2 °F 15.2 °F 28.4 °F 93% 29.48 in 0.2 mi ENE 29.9 mph 39.1 mph N/A Snow Heavy Snow
4:33 PM 30.2 °F 15.2 °F 28.4 °F 93% 29.47 in 0.2 mi ENE 29.9 mph 40.3 mph N/A Snow Heavy Snow
4:54 PM 30.2 °F 15.4 °F 28.4 °F 93% 29.45 in 0.2 mi ENE 28.8 mph 38.0 mph N/A Snow Snow
5:14 PM 32.0 °F 17.4 °F 30.2 °F 93% 29.45 in 0.8 mi ENE 31.1 mph 36.8 mph N/A Snow Light Snow
5:33 PM 32.0 °F 17.2 °F 30.2 °F 93% 29.44 in 0.2 mi ENE 32.2 mph 36.8 mph N/A   Overcast
5:54 PM 32.0 °F 18.1 °F 30.2 °F 93% 29.44 in 1.8 mi ENE 27.6 mph 34.5 mph N/A   Overcast
6:13 PM 32.0 °F 17.9 °F 30.2 °F 93% 29.43 in 1.2 mi ENE 28.8 mph 38.0 mph N/A   Overcast
6:33 PM 32.0 °F 17.6 °F 30.2 °F 93% 29.42 in 2.0 mi ENE 29.9 mph 36.8 mph N/A   Overcast
6:54 PM 32.0 °F 18.1 °F 30.2 °F 93% 29.41 in 2.0 mi ENE 27.6 mph 36.8 mph N/A   Overcast
7:13 PM 32.0 °F 17.6 °F 30.2 °F 93% 29.41 in 2.0 mi ENE 29.9 mph 36.8 mph N/A   Overcast
7:34 PM 33.8 °F 20.1 °F 30.2 °F 87% 29.40 in 2.0 mi ENE 29.9 mph 35.7 mph N/A   Overcast
7:53 PM 33.8 °F 20.5 °F 30.2 °F 87% 29.40 in 2.5 mi ENE 27.6 mph 32.2 mph N/A   Overcast
8:13 PM 33.8 °F 20.8 °F 30.2 °F 87% 29.39 in 4.0 mi NE 26.5 mph 32.2 mph N/A   Overcast
8:33 PM 33.8 °F 20.8 °F 30.2 °F 87% 29.38 in 2.0 mi ENE 26.5 mph 32.2 mph N/A   Overcast
8:54 PM 33.8 °F 21.0 °F 30.2 °F 87% 29.38 in 1.8 mi ENE 25.3 mph 28.8 mph N/A   Overcast
9:13 PM 33.8 °F 21.0 °F 30.2 °F 87% 29.38 in 2.0 mi ENE 25.3 mph 29.9 mph N/A   Overcast
9:33 PM 33.8 °F 21.0 °F 30.2 °F 87% 29.37 in 2.5 mi ENE 25.3 mph 29.9 mph N/A   Overcast
9:54 PM 32.0 °F 19.8 °F 30.2 °F 93% 29.37 in 3.0 mi NE 20.7 mph - N/A   Overcast
10:13 PM 33.8 °F 23.2 °F 30.2 °F 87% 29.36 in 3.0 mi NE 17.3 mph - N/A   Overcast
10:33 PM 33.8 °F 23.2 °F 30.2 °F 87% 29.36 in 7.0 mi NE 17.3 mph - N/A   Overcast
10:54 PM 33.8 °F 23.5 °F 30.2 °F 87% 29.36 in 10.0 mi NE 16.1 mph 21.9 mph N/A   Overcast
11:13 PM 33.8 °F 23.5 °F 30.2 °F 87% 29.35 in 10.0 mi NE 16.1 mph - N/A   Overcast
11:33 PM 33.8 °F 23.5 °F 30.2 °F 87% 29.35 in 10.0 mi NE 16.1 mph 23.0 mph N/A   Overcast
11:53 PM 33.8 °F 23.9 °F 30.2 °F 87% 29.34 in 10.0 mi NE 15.0 mph 19.6 mph N/A   Overcast